Siga o Apolo11 no Facebook   Siga o Apolo11 no Twiiter
Ciência, Espaço e Tecnologia




Elementos Keplerianos formato Two Line

Para que um programa de rastreio possa saber a localização exata de qualquer satélite no espaço e assim poder rastreá-lo corretamente, é necessário que ele seja carregado com algumas informações.

Estas informações são chamadas de Elementos Orbitais ou Elementos Keplerianos e consistem em 2 linhas com dezenas de números. Esses números nada mais são que os parâmetros orbitais do satélite, tais como altitude, atitude, excentricidade da órbita, número de órbitas por dia, etc.

Com base nestas informações o programa é capaz de determinar com bastante exatidão a posição de qualquer satélite no espaço e nos informar em qual horário este estará dentro do alcance de nossa estação. Para que isso seja feito com precisão é necessário que os dados estejam sempre bem atualizadas.

Devido aos parâmetros orbitais serem descritos em 2 linhas, estes formato é também conhecido internacionalmente por 2line (leia-se Two Line”).

Para atualizar seu programa de rastreio basta copiar os dados disponibilizados e fornece-los ao programa. Nossos elementos orbitais são atualizados diariamente.

NOAATodos os satélites ambientais da série NOAA
30 DiasSatélites lançados nos últimos 30 dias
ISSSatélites e foguetes relacionados à Estação Espacial Internacional
HAMSatélites construídos por radiomadores
CUBESatélites tipo cubo, com 10 centímetros de lado
METEOSatélites voltados à previsão do tempo
EDUSatélites construídos e operados por universidades
VIS100 satélites mais brilhantes que podem ser vistos a olho nú



Satélites Educacionais
SAUDISAT 1C             
1 27607U 02058C   21015.89334244  .00000004  00000-0  20884-4 0  9993
2 27607  64.5560  84.8397 0029350  89.3628 271.0838 14.75702581972067
SAUDISAT 2              
1 28371U 04025F   21015.81504130  .00000120  00000-0  39070-4 0  9999
2 28371  98.3070 328.8602 0024447 258.8473 101.0022 14.54410315878048
SAUDISAT 3              
1 31118U 07012B   21015.99012564 -.00000010  00000-0  63526-5 0  9998
2 31118  97.9013 332.7940 0016199  48.5112 311.7481 14.69187359737173
PISAT                   
1 41784U 16059B   21015.16620081  .00000096  00000-0  27344-4 0  9997
2 41784  97.9909  71.5817 0031999   8.4925 351.6813 14.63578465229871
FLYING LAPTOP           
1 42831U 17042G   21015.77751511 -.00000389  00000-0 -33803-4 0  9998
2 42831  97.4918 253.3873 0012893 301.4159  58.5806 14.91221753190934
SALSAT                  
1 46495U 20068K   21015.91047666  .00000678  00000-0  54413-4 0  9994
2 46495  97.6795 314.4466 0015939 228.1178 131.8690 15.03314449 16411


IMAGENS DE SATÉLITES !    Clique e conheça nosso Vídeo Workshop de sensoriamento remoto e imagens meteorológicas.
Apolo11.com - Todos os direitos reservados - 2001 - 2021
Política de Privacidade

"Um instante mais e estarás esquecido de tudo; mais um instante, e todos estarão esquecidos de ti" - Marco Aurélio